SCP
0 0 0 0 0 0 0 0 0 0 0 0 0 0 0 0 0 0 0 0 0 0 0 0 0 0 0 0 0 0 0 0 0 0 0 0 0 0 0 0 0 0 0
0 0 0 0 0 0 0 0 0 0 0 0 0 0 0 0 0 0 0 0 0 0 0 0 0 0 0 0 0 0 0 0 0 0 0 0 0 0 0 0 0 0 0
0 0 0 0 0 0 0 0 0 0 0 0 0 0 0 0 0 0 0 0 0 0 0 0 0 0 0 0 0 0 0 0 0 0 0 0 0 0 0 0 0 0 0
0 0 0 0 0 0 0 0 0 0 0 0 0 0 0 0 0 0 0 0 0 0 0 0 0 0 0 0 0 0 0 0 0 0 0 0 0 0 0 0 0 0 0
0 0 0 0 0 0 0 0 0 0 0 0 0 0 0 0 0 0 0 0 0 0 0 0 0 0 0 0 0 0 0 0 0 0 0 0 0 0 0 0 0 0 0
0 0 0 0 0 0 0 0 0 0 0 0 0 0 0 0 0 0 0 0 0 0 0 0 0 0 0 0 0 0 0 0 0 0 0 0 0 0 0 0 0 0 0
0 0 0 0 0 0 0 0 0 0 0 0 0 0 0 0 0 0 0 0 0 0 0 0 0 0 0 0 0 0 0 0 0 0 0 0 0 0 0 0 0 0 0
0 0 0 0 0 0 0 0 0 0 0 0 0 0 0 0 0 0 0 0 0 0 0 0 0 0 0 0 0 0 0 0 0 0 0 0 0 0 0 0 0 0 0
0 0 0 0 0 0 0 0 0 0 0 0 0 0 0 0 0 0 0 0 0 0 0 0 0 0 0 0 0 0 0 0 0 0 0 0 0 0 0 0 0 0 0
0 0 0 0 0 0 0 0 0 0 0 0 0 0 0 0 0 0 0 0 0 0 0 0 0 0 0 0 0 0 0 0 0 0 0 0 0 0 0 0 0 0 0
0 0 0 0 0 0 0 0 0 0 0 0 0 0 0 0 0 0 0 0 0 0 0 0 0 0 0 0 0 0 0 0 0 0 0 0 0 0 0 0 0 1 1
0 0 0 0 0 0 0 0 0 0 0 0 0 0 0 0 0 0 0 0 0 0 0 0 0 0 0 0 0 0 0 0 0 0 0 0 0 0 0 0 1 1 1
0 0 0 0 0 0 0 0 0 0 0 0 0 0 0 0 0 0 0 0 0 0 0 0 0 0 0 0 0 0 0 0 0 0 0 0 0 0 0 0 1 1 1
0 0 0 0 0 0 0 0 0 0 0 0 0 0 0 0 0 0 0 0 0 0 0 0 0 0 0 0 0 0 0 0 0 0 0 0 0 0 0 0 0 0 0
0 0 0 0 0 0 0 0 0 0 0 0 0 0 0 0 0 0 0 0 0 0 0 0 0 0 0 0 0 0 0 0 0 0 0 0 0 0 0 0 0 0 0
0 0 0 0 0 0 0 0 0 0 0 0 0 0 0 0 0 0 0 0 0 0 0 0 0 0 0 0 0 0 0 0 0 0 0 0 0 0 0 0 0 0 0
0 0 0 0 0 0 0 0 0 0 0 0 0 0 0 0 0 0 0 0 0 0 0 0 0 0 0 0 0 0 0 0 0 0 0 0 0 0 0 0 0 0 0
0 0 0 0 0 0 0 0 0 0 0 0 0 0 0 0 0 0 0 0 0 0 0 0 0 0 0 0 0 0 0 0 0 0 0 0 0 0 0 0 0 0 0
0 0 0 0 0 0 0 0 0 0 0 0 0 0 0 0 0 0 0 0 0 0 0 0 0 0 0 0 0 0 0 0 0 0 0 0 0 0 0 0 0 0 0
0 0 0 0 0 0 0 0 0 0 0 0 0 0 0 0 0 0 0 0 0 0 0 0 0 0 0 0 0 0 0 0 0 0 0 0 0 0 0 0 0 0 0
0 0 0 0 0 0 0 0 0 0 0 0 0 0 0 0 0 0 0 0 0 0 0 0 0 0 0 0 0 0 0 0 0 0 0 0 0 0 0 0 0 0 0
0 0 0 0 0 0 0 0 0 0 0 0 0 0 0 0 0 0 0 0 0 0 0 0 0 0 0 0 0 0 0 0 0 0 0 0 0 0 0 0 0 0 0
0 0 0 0 0 0 0 0 0 0 0 0 0 0 0 0 0 0 0 0 0 0 0 0 0 0 0 0 0 0 0 0 0 0 0 0 0 0 0 0 0 0 0
0 0 0 0 0 0 0 0 0 0 0 0 0 0 0 0 0 0 0 0 0 0 0 0 0 0 0 0 0 0 0 0 0 0 0 0 0 0 0 0 0 0 0
0 0 0 0 0 0 0 0 0 0 0 0 0 0 0 0 0 0 0 0 0 0 0 0 0 0 0 0 0 0 0 0 0 0 0 0 0 0 0 0 0 0 0
0 0 0 0 0 0 0 0 0 0 0 0 0 0 0 0 0 0 0 0 0 0 0 0 0 0 0 0 0 0 0 0 0 0 0 0 0 0 0 0 0 0 0
Wind_Speed
5 4 4 4 4 3 3 3 3 4 4 4 4 4 3 2 1 2 5 11 12 12 12 13 13 12 12 12 13 13 14 14 14 14 14 14 14 14 14 13 13 13 13
5 5 5 4 4 3 3 3 4 3 3 3 4 3 2 1 1 2 4 7 12 12 13 14 14 13 13 13 13 14 14 15 15 15 15 15 15 15 15 15 15 15 15
7 7 6 5 4 4 5 3 4 3 3 2 2 2 1 1 1 3 3 3 5 10 12 13 14 14 13 13 14 14 15 15 16 16 16 16 15 16 16 16 17 17 17
10 8 7 6 5 4 4 3 2 2 3 3 3 2 2 2 3 2 3 3 3 3 6 10 12 12 12 13 14 15 16 16 17 17 17 17 16 16 17 17 18 18 19
11 8 6 6 6 4 4 4 3 3 4 5 4 3 3 4 4 3 2 1 2 3 3 5 8 9 11 13 15 16 17 17 17 18 18 18 18 18 18 18 19 20 21
11 10 7 8 7 5 4 4 5 4 4 5 5 4 2 2 4 4 3 2 1 2 4 6 7 7 10 13 16 16 17 18 18 19 19 19 19 19 20 20 21 22 23
11 10 8 7 6 5 5 5 4 4 5 5 4 3 1 2 3 3 3 4 3 4 6 7 8 8 7 13 13 15 17 18 19 19 20 20 21 21 22 22 23 24 25
10 9 9 7 7 6 7 5 4 3 3 4 4 4 3 2 2 2 3 4 4 5 6 9 10 9 10 8 10 15 16 18 20 21 21 22 23 23 24 25 26 26 27
8 9 10 8 7 7 6 6 4 3 3 3 4 4 4 4 5 4 5 5 6 6 7 8 10 11 11 8 9 11 16 18 20 22 23 24 25 26 27 27 28 28 28
9 9 10 9 8 7 7 6 5 3 2 2 1 2 3 4 5 6 4 5 6 8 9 8 10 11 10 8 10 15 16 18 21 24 26 27 27 28 28 29 29 30 30
9 10 10 9 8 7 7 6 5 3 1 1 2 2 3 4 6 5 8 8 7 7 7 9 9 9 9 9 10 12 16 20 24 26 27 27 28 29 30 30 31 31 31
8 10 9 9 8 7 7 6 4 4 1 1 2 3 4 4 5 6 9 11 11 9 10 8 8 8 8 10 12 15 19 24 26 26 27 28 29 30 31 31 32 32 33
9 10 9 9 8 7 7 5 4 3 2 2 3 4 4 5 6 7 9 11 13 11 9 6 7 7 8 9 10 18 22 25 26 27 29 30 31 31 31 32 32 33 33
10 11 10 9 9 8 6 5 3 3 2 3 4 5 5 5 5 7 8 10 12 10 9 12 9 7 7 9 13 21 18 23 26 28 30 32 32 32 32 32 32 32 33
10 11 10 10 8 7 6 4 2 2 2 3 4 5 5 5 6 6 7 8 10 13 13 11 7 8 10 11 15 15 17 22 27 29 31 31 31 32 32 33 33 33 32
12 12 10 9 8 6 5 3 2 1 3 3 4 6 6 5 6 7 7 8 9 13 15 10 12 13 14 13 17 17 17 25 27 28 28 30 31 32 33 33 33 33 33
12 11 10 9 7 5 4 2 1 2 4 5 5 6 7 8 7 7 7 8 9 11 15 15 12 13 17 17 16 15 15 16 16 25 28 30 31 32 33 33 33 33 33
11 10 9 8 6 4 3 1 2 3 5 6 6 7 8 7 9 9 8 9 10 11 14 19 15 14 17 17 17 17 15 14 15 22 28 30 30 31 32 32 32 33 33
11 9 8 7 5 4 2 1 3 5 6 7 7 8 9 9 10 9 10 11 10 11 13 15 17 15 14 14 17 16 17 15 15 17 23 26 27 30 31 32 33 33 33
10 9 7 6 4 2 1 3 5 6 7 8 8 8 9 10 11 12 11 12 12 13 14 15 15 15 14 16 15 15 14 13 14 14 19 21 24 28 29 30 31 31 31
9 8 6 5 3 1 1 5 6 7 8 9 9 9 10 11 15 14 12 13 14 13 13 13 14 15 14 14 14 14 15 15 15 14 15 15 15 15 17 22 26 27 29
8 6 5 3 1 0 3 7 8 8 8 9 10 10 11 12 14 18 20 20 20 17 16 15 14 16 18 17 15 14 15 16 16 12 15 16 15 16 15 14 22 29 31
7 5 4 2 1 1 5 8 9 10 9 9 10 11 10 10 15 13 17 20 20 23 22 18 18 18 18 17 17 19 17 18 18 15 15 18 16 16 15 16 27 30 31
5 4 2 1 2 3 6 9 11 10 9 10 11 12 13 13 13 16 17 17 16 16 18 15 15 17 17 18 17 18 18 18 18 14 14 17 16 16 15 15 24 29 30
4 3 1 1 4 4 6 10 12 9 8 10 11 12 13 14 18 21 18 17 17 15 16 19 22 23 27 27 21 13 14 14 15 14 12 13 14 15 16 16 17 24 25
3 2 1 2 4 5 7 10 12 8 9 10 10 12 15 16 20 23 17 16 17 15 15 16 17 18 17 17 19 14 11 12 14 12 9 9 12 12 12 10 11 13 16
Wind_Direction
161 142 119 102 99 104 115 96 67 54 36 27 21 359 355 7 54 91 87 57 53 51 43 34 24 18 11 6 4 0 356 352 347 344 341 339 337 335 332 328 324 320 316
149 134 120 110 109 107 93 83 67 54 40 25 17 8 353 4 101 111 103 85 62 52 45 34 23 12 4 357 352 348 344 340 336 332 328 326 324 323 320 317 314 311 307
145 134 128 124 120 116 107 90 77 53 42 24 11 2 326 275 187 138 111 84 81 64 48 34 22 9 359 350 343 338 334 330 326 322 319 316 314 313 312 310 308 305 302
145 136 132 126 128 120 109 92 68 47 29 0 345 337 271 222 211 165 138 98 59 43 51 31 14 3 352 341 334 329 326 322 318 314 311 308 305 304 303 303 303 301 298
143 135 129 132 133 122 110 97 64 30 16 358 337 317 295 238 200 198 181 124 60 14 355 7 352 347 339 332 327 322 319 315 312 309 305 300 298 298 297 297 296 294 292
139 130 129 136 133 126 118 105 86 55 21 348 325 324 325 235 218 215 228 236 255 309 326 337 332 331 324 321 322 320 317 314 311 308 303 298 295 294 294 293 292 290 288
138 133 134 136 136 122 114 102 90 65 33 354 330 327 191 193 230 216 247 276 264 281 299 323 329 325 317 320 319 321 318 316 312 309 305 302 297 293 292 291 290 288 285
137 136 139 136 130 121 110 95 84 71 51 17 350 329 323 215 153 216 272 275 287 290 305 321 322 316 315 313 315 316 317 316 314 310 306 303 299 295 292 291 289 287 284
137 138 136 132 129 120 109 98 86 68 61 50 13 348 326 317 317 280 280 294 297 304 311 315 310 311 309 306 310 313 315 315 312 308 307 304 301 296 293 290 288 286 284
137 135 131 129 123 116 116 108 95 85 48 37 53 348 316 314 296 301 276 270 286 297 299 303 307 305 301 307 307 305 309 312 310 309 307 303 299 295 293 290 288 286 285
135 134 132 128 122 117 116 117 114 106 75 351 322 305 284 272 268 282 295 304 301 294 298 298 295 293 298 306 305 304 311 310 308 305 302 300 298 296 294 292 291 289 287
138 136 133 127 124 122 124 126 127 132 145 234 279 285 294 294 298 288 291 301 304 306 302 293 286 290 300 306 303 309 310 308 305 302 301 299 297 296 295 294 293 291 289
147 144 139 133 127 126 129 135 141 154 184 242 271 283 282 281 290 286 288 296 299 300 291 278 275 286 296 299 303 310 306 302 301 301 300 299 299 298 297 295 293 291 289
142 141 137 132 131 132 136 144 152 171 211 253 272 284 286 283 285 285 291 299 300 294 289 294 304 299 295 294 295 300 294 295 296 297 297 298 298 298 296 294 292 290 288
135 138 136 133 133 135 141 156 167 181 235 266 284 285 284 288 286 286 285 285 291 298 301 302 298 299 299 297 295 292 291 292 294 294 293 294 294 294 293 292 291 289 287
135 138 137 135 136 140 149 160 173 204 268 285 294 292 294 293 292 288 284 284 281 286 289 294 300 300 304 296 292 292 292 293 290 290 291 292 292 292 292 291 289 288 286
137 138 137 137 140 143 149 165 203 254 283 291 289 293 296 299 295 293 291 286 283 284 287 294 298 302 300 297 298 297 295 293 291 292 293 293 292 292 291 289 288 287 285
133 133 134 135 134 138 150 190 253 279 289 293 295 295 298 301 297 294 292 290 288 287 289 296 299 299 299 300 299 299 299 295 292 293 294 293 292 291 289 288 287 285 284
129 129 131 130 131 137 164 255 287 292 290 290 292 294 299 301 299 298 297 293 291 290 288 291 295 298 298 300 302 300 298 296 296 295 295 292 291 289 288 287 287 286 285
127 127 125 124 127 141 214 279 291 292 290 288 285 288 293 297 299 300 296 294 293 293 292 291 293 297 300 303 303 303 303 302 299 299 293 290 289 290 288 287 286 284 283
123 125 127 127 130 178 291 305 300 294 292 292 289 288 289 293 295 296 296 297 299 296 293 291 294 298 301 305 304 305 304 303 298 297 295 295 295 290 289 287 284 282 281
127 131 131 132 147 298 314 306 309 300 294 293 294 295 295 293 295 298 299 299 295 291 292 293 295 297 299 300 304 304 301 300 300 302 300 297 296 290 289 286 286 286 285
135 137 135 150 253 309 309 313 311 302 298 296 297 298 300 299 303 301 299 296 292 290 288 292 293 292 296 300 301 299 298 298 296 300 298 293 294 292 291 288 290 288 287
138 140 144 201 283 301 314 313 313 303 298 296 298 301 302 304 305 306 302 299 296 294 292 291 288 290 290 292 292 295 297 294 289 288 288 290 294 293 295 293 291 289 286
138 145 174 260 293 305 316 315 319 310 300 301 303 302 302 301 303 306 305 302 301 298 297 294 289 286 288 292 294 292 290 291 293 295 295 287 292 299 295 288 286 287 287
137 163 220 280 301 312 318 319 322 309 308 309 305 304 303 305 308 309 308 305 303 305 306 301 295 293 292 290 289 283 284 287 291 295 291 292 296 305 298 284 287 292 292